RADUGA 5 [-]

Last updated on June 24, 2019, 3:40 a.m. UTC

1 11343U 79035A   19173.80466028  .00000001  00000-0  00000-0 0  9992
2 11343  11.2795 312.6032 0003276 102.3566 209.8438  1.00271235103769
UTC
Height (km)
Latitude
Longitude
Inclination
Orbital Period
UTC large
Height (km)
Speed (km/s)
/
Latitude / Longitude
Inclination (degrees)
Orbital Period (minutes)
Azimuth
Elevation
Range (km)
Doppler Factor
iOS Compass Heading
iOS Angle

Next 30 passes for location: Hong Kong

Rise time Rise Azimuth (degrees) Set time Set Azimuth (degrees) Duration Max altitude (degrees)

No matching passes for this satellites